Location: Melbourne
(37.8170°S, 144.9670°E)
Time: 14:35:20
(UTC+10:00)

Transit 2A - All Passes

Search period start: 29 July 2014 00:00
Search period end: 08 August 2014 00:00
Orbit: 603 x 960 km, 66.7° (Epoch: 28 July)

Date Brightness Start Highest point End Pass type
(mag) Time Alt. Az. Time Alt. Az. Time Alt. Az.
29 Jul - 11:40:46 10° N 11:46:28 54° ENE 11:52:37 10° SE daylight
29 Jul - 13:25:02 10° WNW 13:30:08 27° SW 13:35:30 10° S daylight
29 Jul - 20:30:25 10° SSW 20:36:00 33° SE 20:41:10 10° ENE visible
29 Jul - 22:13:45 10° SW 22:19:21 39° WNW 22:24:27 10° N visible
30 Jul - 11:07:46 10° N 11:13:07 38° ENE 11:18:52 10° SE daylight
30 Jul - 12:50:53 10° WNW 12:56:25 37° SW 13:02:17 10° SSE daylight
30 Jul - 19:57:14 10° S 20:02:16 25° SE 20:06:59 10° ENE visible
30 Jul - 21:40:01 10° SW 21:46:00 56° WNW 21:51:25 10° N visible
31 Jul - 10:35:03 10° NNE 10:39:51 26° ENE 10:44:55 10° SE daylight
31 Jul - 12:16:58 10° NW 12:22:47 50° WSW 12:28:58 10° SSE daylight
31 Jul - 14:06:12 10° SW 14:07:43 11° SW 14:09:15 10° SSW daylight
31 Jul - 19:24:11 10° S 19:28:28 19° SE 19:32:32 10° E visible
31 Jul - 21:06:25 10° SSW 21:12:35 81° WNW 21:18:09 10° NNE visible
01 Aug - 10:02:45 10° NE 10:06:37 18° ENE 10:10:39 10° ESE daylight
01 Aug - 11:43:15 10° NW 11:49:12 69° WSW 11:55:35 10° SSE daylight
01 Aug - 13:30:30 10° WSW 13:33:46 14° SW 13:37:05 10° S daylight
01 Aug - 18:51:22 10° S 18:54:35 14° SE 18:57:42 10° ESE visible
01 Aug - 20:32:55 10° SSW 20:39:06 73° ESE 20:44:41 10° NE visible
01 Aug - 22:18:16 10° WSW 22:21:32 15° W 22:24:39 10° NW visible
02 Aug - 09:31:23 10° ENE 09:33:27 12° E 09:35:33 10° E daylight
02 Aug - 11:09:44 10° NNW 11:15:42 86° ENE 11:22:06 10° SSE daylight
02 Aug - 12:55:38 10° W 12:59:53 19° SW 13:04:16 10° S daylight
02 Aug - 18:19:14 10° SSE 18:20:38 11° SE 18:22:01 10° SE visible
02 Aug - 19:59:31 10° SSW 20:05:32 52° ESE 20:11:00 10° NE visible
02 Aug - 21:43:48 10° SW 21:48:20 23° WNW 21:52:34 10° NNW visible
03 Aug - 10:36:25 10° NNW 10:42:15 62° ENE 10:48:32 10° SE daylight
03 Aug - 12:21:08 10° WNW 12:26:04 25° SW 12:31:13 10° S daylight
03 Aug - 19:26:12 10° SSW 19:31:54 37° SE 19:37:08 10° ENE visible
03 Aug - 21:09:46 10° SW 21:15:05 33° WNW 21:19:57 10° N visible
04 Aug - 10:03:19 10° N 10:08:53 43° ENE 10:14:50 10° SE daylight
04 Aug - 11:46:54 10° WNW 11:52:20 33° SW 11:58:02 10° SSE daylight
04 Aug - 18:52:58 10° S 18:58:11 28° SE 19:03:02 10° ENE visible
04 Aug - 20:35:58 10° SW 20:41:46 48° WNW 20:47:01 10° N visible
05 Aug - 09:30:29 10° NNE 09:35:35 30° ENE 09:40:59 10° SE daylight
05 Aug - 11:12:54 10° NW 11:18:40 44° SW 11:24:46 10° SSE daylight
05 Aug - 18:19:52 10° S 18:24:24 21° SE 18:28:41 10° E visible
05 Aug - 20:02:19 10° SSW 20:08:23 70° WNW 20:13:50 10° NNE visible
06 Aug - 08:57:59 10° NNE 09:02:20 21° ENE 09:06:52 10° ESE daylight
06 Aug - 10:39:06 10° NW 10:45:03 61° WSW 10:51:24 10° SSE daylight
06 Aug - 12:26:59 10° WSW 12:29:45 13° SW 12:32:34 10° SSW daylight
06 Aug - 17:46:57 10° S 17:50:33 16° SE 17:54:01 10° ESE daylight
06 Aug - 19:28:46 10° SSW 19:34:55 83° ESE 19:40:26 10° NNE visible
06 Aug - 21:14:49 10° WSW 21:17:12 13° W 21:19:30 10° NW visible
07 Aug - 08:26:06 10° NE 08:29:08 14° E 08:32:15 10° ESE daylight
07 Aug - 10:05:30 10° NNW 10:11:31 84° WSW 10:17:58 10° SSE daylight
07 Aug - 11:51:54 10° W 11:55:51 17° SW 11:59:53 10° S daylight
07 Aug - 17:14:27 10° SSE 17:16:38 12° SE 17:18:46 10° ESE daylight
07 Aug - 18:55:20 10° SSW 19:01:23 59° ESE 19:06:51 10° NE visible
07 Aug - 20:39:59 10° WSW 20:44:01 19° WNW 20:47:49 10° NNW visible
